When you browse on this site, cookies collect data to enhance your experience and personalize the content and advertising you see.
Visit our Privacy Policy to learn more. By continuing to use the site, you agree to this use of cookies and data.
  • In Deutschland
  • Länderverzeichnis
  • Für 7 Tage
  • Wassertemperatur
  • Wetterkarte
  • Widgets
  • user-avatar
    Anmelden

    Stündliche Wetter Ali Bajramli

    Heute, 18 August, Sonntag

    Zeit Temperatur Niederschläge Wind Luftdruck Luftfeuchtigkeit
    00:00 +25°C° 0 mm 2 m/S 755 mmHg 43%
    01:00 +24°C° 0 mm 2 m/S 755 mmHg 45%
    02:00 +24°C° 0 mm 1 m/S 755 mmHg 46%
    03:00 +23°C° 0 mm 1 m/S 755 mmHg 48%
    04:00 +24°C° 0 mm 1 m/S 755 mmHg 47%
    05:00 +24°C° 0 mm 2 m/S 755 mmHg 46%
    06:00 +25°C° 0 mm 2 m/S 756 mmHg 45%
    07:00 +28°C° 0 mm 2 m/S 756 mmHg 39%
    08:00 +30°C° 0 mm 3 m/S 756 mmHg 34%
    09:00 +34°C° 0 mm 3 m/S 756 mmHg 29%
    10:00 +35°C° 0 mm 4 m/S 756 mmHg 25%
    11:00 +37°C° 0 mm 5 m/S 755 mmHg 22%
    12:00 +39°C° 0 mm 6 m/S 755 mmHg 19%
    13:00 +39°C° 0 mm 6 m/S 755 mmHg 18%
    14:00 +38°C° 0 mm 7 m/S 755 mmHg 18%
    15:00 +38°C° 0 mm 7 m/S 755 mmHg 18%
    16:00 +36°C° 0 mm 6 m/S 755 mmHg 20%
    17:00 +34°C° 0 mm 5 m/S 755 mmHg 23%
    18:00 +33°C° 0 mm 4 m/S 755 mmHg 25%
    19:00 +30°C° 0 mm 4 m/S 755 mmHg 32%
    20:00 +28°C° 0 mm 3 m/S 755 mmHg 38%
    21:00 +26°C° 0 mm 2 m/S 755 mmHg 45%
    22:00 +26°C° 0 mm 2 m/S 755 mmHg 45%
    23:00 +25°C° 0 mm 2 m/S 755 mmHg 46%

    Morgen, 19 August, Montag

    Zeit Temperatur Niederschläge Wind Luftdruck Luftfeuchtigkeit
    00:00 +25°C° 0 mm 2 m/S 755 mmHg 47%
    01:00 +24°C° 0 mm 1 m/S 756 mmHg 50%
    02:00 +23°C° 0 mm 1 m/S 756 mmHg 53%
    03:00 +23°C° 0 mm 1 m/S 756 mmHg 56%
    04:00 +23°C° 0 mm 1 m/S 757 mmHg 53%
    05:00 +24°C° 0 mm 1 m/S 757 mmHg 51%
    06:00 +25°C° 0 mm 1 m/S 757 mmHg 48%
    07:00 +28°C° 0 mm 2 m/S 758 mmHg 41%
    08:00 +31°C° 0 mm 2 m/S 758 mmHg 34%
    09:00 +35°C° 0 mm 3 m/S 758 mmHg 27%
    10:00 +36°C° 0 mm 4 m/S 758 mmHg 23%
    11:00 +39°C° 0 mm 5 m/S 758 mmHg 20%
    12:00 +40°C° 0 mm 6 m/S 758 mmHg 16%
    13:00 +40°C° 0 mm 6 m/S 758 mmHg 15%
    14:00 +40°C° 0 mm 6 m/S 758 mmHg 14%
    15:00 +40°C° 0 mm 6 m/S 758 mmHg 14%
    16:00 +38°C° 0 mm 6 m/S 758 mmHg 16%
    17:00 +36°C° 0 mm 5 m/S 758 mmHg 18%
    18:00 +34°C° 0 mm 5 m/S 758 mmHg 20%
    19:00 +32°C° 0 mm 4 m/S 758 mmHg 25%
    20:00 +29°C° 0 mm 3 m/S 758 mmHg 29%
    21:00 +27°C° 0 mm 2 m/S 759 mmHg 34%
    22:00 +26°C° 0 mm 2 m/S 759 mmHg 37%
    23:00 +25°C° 0 mm 1 m/S 759 mmHg 40%

    übermorgen, 20 August, Dienstag

    Zeit Temperatur Niederschläge Wind Luftdruck Luftfeuchtigkeit
    00:00 +24°C° 0 mm 1 m/S 759 mmHg 43%
    01:00 +23°C° 0 mm 1 m/S 759 mmHg 44%
    02:00 +23°C° 0 mm 1 m/S 759 mmHg 46%
    03:00 +23°C° 0 mm 1 m/S 759 mmHg 47%
    04:00 +23°C° 0 mm 1 m/S 759 mmHg 43%
    05:00 +24°C° 0 mm 2 m/S 759 mmHg 40%
    06:00 +25°C° 0 mm 2 m/S 760 mmHg 36%
    07:00 +28°C° 0 mm 2 m/S 760 mmHg 31%
    08:00 +31°C° 0 mm 2 m/S 760 mmHg 25%
    09:00 +35°C° 0 mm 2 m/S 760 mmHg 20%
    10:00 +36°C° 0 mm 3 m/S 760 mmHg 18%
    11:00 +38°C° 0 mm 3 m/S 759 mmHg 16%
    12:00 +41°C° 0 mm 4 m/S 759 mmHg 15%
    13:00 +41°C° 0 mm 5 m/S 759 mmHg 16%
    14:00 +40°C° 0 mm 6 m/S 758 mmHg 17%
    15:00 +40°C° 0 mm 7 m/S 758 mmHg 18%
    16:00 +38°C° 0 mm 6 m/S 758 mmHg 21%
    17:00 +35°C° 0 mm 6 m/S 758 mmHg 25%
    18:00 +34°C° 0 mm 5 m/S 758 mmHg 29%
    19:00 +32°C° 0 mm 4 m/S 758 mmHg 34%
    20:00 +29°C° 0 mm 3 m/S 759 mmHg 39%
    21:00 +27°C° 0 mm 2 m/S 759 mmHg 44%
    22:00 +26°C° 0 mm 2 m/S 759 mmHg 45%
    23:00 +26°C° 0 mm 2 m/S 759 mmHg 45%

    21 August, Mittwoch

    Zeit Temperatur Niederschläge Wind Luftdruck Luftfeuchtigkeit
    00:00 +25°C° 0 mm 2 m/S 758 mmHg 45%
    01:00 +25°C° 0 mm 1 m/S 758 mmHg 44%
    02:00 +24°C° 0 mm 1 m/S 758 mmHg 44%
    03:00 +24°C° 0 mm 1 m/S 758 mmHg 43%
    04:00 +24°C° 0 mm 1 m/S 758 mmHg 41%
    05:00 +25°C° 0 mm 1 m/S 758 mmHg 40%
    06:00 +26°C° 0 mm 2 m/S 758 mmHg 38%
    07:00 +29°C° 0 mm 2 m/S 759 mmHg 32%
    08:00 +32°C° 0 mm 2 m/S 759 mmHg 25%
    09:00 +35°C° 0 mm 2 m/S 759 mmHg 19%
    10:00 +37°C° 0 mm 2 m/S 758 mmHg 17%
    11:00 +39°C° 0 mm 2 m/S 758 mmHg 14%
    12:00 +40°C° 0 mm 2 m/S 758 mmHg 12%
    13:00 +41°C° 0 mm 4 m/S 757 mmHg 13%
    14:00 +41°C° 0 mm 5 m/S 757 mmHg 14%
    15:00 +41°C° 0 mm 7 m/S 757 mmHg 15%
    16:00 +39°C° 0 mm 6 m/S 757 mmHg 20%
    17:00 +36°C° 0 mm 6 m/S 756 mmHg 25%
    18:00 +34°C° 0 mm 5 m/S 756 mmHg 30%
    19:00 +32°C° 0 mm 4 m/S 757 mmHg 36%
    20:00 +29°C° 0 mm 3 m/S 757 mmHg 42%
    21:00 +27°C° 0 mm 2 m/S 757 mmHg 48%
    22:00 +27°C° 0 mm 2 m/S 757 mmHg 49%
    23:00 +26°C° 0 mm 2 m/S 757 mmHg 51%

    22 August, Donnerstag

    Zeit Temperatur Niederschläge Wind Luftdruck Luftfeuchtigkeit
    00:00 +25°C° 0 mm 2 m/S 757 mmHg 52%
    01:00 +26°C° 0 mm 2 m/S 757 mmHg 50%
    02:00 +26°C° 0 mm 2 m/S 756 mmHg 48%
    03:00 +26°C° 0 mm 3 m/S 756 mmHg 47%
    04:00 +26°C° 0 mm 2 m/S 756 mmHg 46%
    05:00 +26°C° 0 mm 2 m/S 756 mmHg 46%
    06:00 +27°C° 0 mm 1 m/S 756 mmHg 46%
    07:00 +29°C° 0 mm 1 m/S 756 mmHg 39%
    08:00 +32°C° 0 mm 1 m/S 756 mmHg 32%
    09:00 +34°C° 0 mm 1 m/S 756 mmHg 25%
    10:00 +37°C° 0 mm 2 m/S 756 mmHg 22%
    11:00 +39°C° 0 mm 3 m/S 756 mmHg 18%
    12:00 +41°C° 0 mm 4 m/S 756 mmHg 15%
    13:00 +41°C° 0 mm 5 m/S 755 mmHg 15%
    14:00 +41°C° 0 mm 5 m/S 755 mmHg 15%
    15:00 +41°C° 0 mm 6 m/S 755 mmHg 15%
    16:00 +40°C° 0 mm 6 m/S 755 mmHg 18%
    17:00 +37°C° 0 mm 5 m/S 755 mmHg 21%
    18:00 +35°C° 0 mm 4 m/S 755 mmHg 24%
    19:00 +33°C° 0 mm 4 m/S 755 mmHg 29%
    20:00 +30°C° 0 mm 3 m/S 755 mmHg 34%
    21:00 +28°C° 0 mm 2 m/S 755 mmHg 39%
    22:00 +28°C° 0 mm 2 m/S 755 mmHg 42%
    23:00 +27°C° 0 mm 2 m/S 755 mmHg 45%

    23 August, Freitag

    Zeit Temperatur Niederschläge Wind Luftdruck Luftfeuchtigkeit
    00:00 +26°C° 0 mm 2 m/S 755 mmHg 48%
    01:00 +26°C° 0 mm 2 m/S 755 mmHg 47%
    02:00 +26°C° 0 mm 2 m/S 755 mmHg 47%
    03:00 +26°C° 0 mm 2 m/S 755 mmHg 47%
    04:00 +27°C° 0 mm 2 m/S 755 mmHg 46%
    05:00 +27°C° 0 mm 1 m/S 756 mmHg 45%
    06:00 +28°C° 0 mm 1 m/S 756 mmHg 44%
    07:00 +30°C° 0 mm 1 m/S 756 mmHg 38%
    08:00 +33°C° 0 mm 1 m/S 756 mmHg 32%
    09:00 +36°C° 0 mm 2 m/S 755 mmHg 26%
    10:00 +38°C° 0 mm 3 m/S 755 mmHg 22%
    11:00 +41°C° 0 mm 4 m/S 755 mmHg 19%
    12:00 +43°C° 0 mm 5 m/S 755 mmHg 16%
    13:00 +42°C° 0 mm 6 m/S 755 mmHg 16%
    14:00 +43°C° 0 mm 7 m/S 754 mmHg 16%
    15:00 +43°C° 0 mm 7 m/S 754 mmHg 16%
    16:00 +40°C° 0 mm 7 m/S 754 mmHg 21%
    17:00 +38°C° 0 mm 6 m/S 754 mmHg 25%
    18:00 +34°C° 0 mm 5 m/S 754 mmHg 30%
    19:00 +33°C° 0 mm 4 m/S 754 mmHg 36%
    20:00 +30°C° 0 mm 3 m/S 755 mmHg 42%
    21:00 +28°C° 0 mm 2 m/S 755 mmHg 47%
    22:00 +28°C° 0 mm 2 m/S 755 mmHg 47%
    23:00 +27°C° 0 mm 2 m/S 755 mmHg 47%
    Mehr zeigen